N717SM CYVR-KTPF

Flight info

Callsign N717SM
Flight time N/A
Altitude 41000
Route YVR J52 GEG J136 BIL J151 OVR DCT VIH/N0482F450 DCT VUZ J41 MGM DCT PIE
Aircraft C750/M-SBDE3FGHRWXY/S

Departure

Time 2026-05-05 16:58
Airport Vancouver International Airport (CYVR)

Arrival

Time N/A
Airport Peter O Knight Airport (KTPF)
Time Latitude Longitude Altitude Speed Heading
2026-05-05 16:58 49.12837 -123.18469 3044 ft 220 kts 155°
2026-05-05 16:58 49.11445 -123.17495 3762 ft 220 kts 155°
2026-05-05 16:59 49.10024 -123.16503 4266 ft 234 kts 155°
2026-05-05 16:59 49.08483 -123.15365 4445 ft 259 kts 150°
2026-05-05 16:59 49.07283 -123.13228 4729 ft 274 kts 114°
2026-05-05 16:59 49.06657 -123.10547 5802 ft 268 kts 109°
2026-05-05 17:00 49.06029 -123.07819 6502 ft 277 kts 110°
2026-05-05 17:00 49.05345 -123.05056 7290 ft 281 kts 110°
2026-05-05 17:00 49.04651 -123.02255 8157 ft 285 kts 110°
2026-05-05 17:00 49.03955 -122.99390 9049 ft 290 kts 110°
2026-05-05 17:01 49.03249 -122.96482 9848 ft 296 kts 109°
2026-05-05 17:01 49.02520 -122.93504 10356 ft 309 kts 109°
2026-05-05 17:01 49.01735 -122.90294 10443 ft 337 kts 109°
2026-05-05 17:01 49.00884 -122.86824 10523 ft 361 kts 109°
2026-05-05 17:02 49.00003 -122.83245 11232 ft 361 kts 109°
2026-05-05 17:02 48.99116 -122.79644 11882 ft 365 kts 109°
2026-05-05 17:02 48.98221 -122.76007 12521 ft 369 kts 109°
2026-05-05 17:02 48.97315 -122.72336 13164 ft 373 kts 108°
2026-05-05 17:03 48.96396 -122.68620 13806 ft 377 kts 108°
2026-05-05 17:03 48.95469 -122.64874 14394 ft 380 kts 108°
2026-05-05 17:03 48.94531 -122.61097 14954 ft 384 kts 108°
2026-05-05 17:03 48.93583 -122.57281 15542 ft 387 kts 108°
2026-05-05 17:04 48.92625 -122.53434 16104 ft 391 kts 108°
2026-05-05 17:04 48.91656 -122.49551 16676 ft 395 kts 108°
2026-05-05 17:04 48.90676 -122.45628 17254 ft 399 kts 108°
2026-05-05 17:04 48.89686 -122.41670 17843 ft 403 kts 108°
2026-05-05 17:05 48.88684 -122.37673 18415 ft 407 kts 108°
2026-05-05 17:05 48.87671 -122.33637 18953 ft 411 kts 108°
2026-05-05 17:05 48.86646 -122.29567 19509 ft 415 kts 108°
2026-05-05 17:05 48.85610 -122.25454 20084 ft 419 kts 108°
2026-05-05 17:06 48.84564 -122.21311 20655 ft 422 kts 108°
2026-05-05 17:06 48.83505 -122.17128 21199 ft 427 kts 108°
2026-05-05 17:06 48.82436 -122.12909 21780 ft 430 kts 108°
2026-05-05 17:06 48.81355 -122.08650 22359 ft 434 kts 108°
2026-05-05 17:07 48.80278 -122.04420 22927 ft 438 kts 108°
2026-05-05 17:07 48.79160 -122.00036 23495 ft 442 kts 108°
2026-05-05 17:07 48.78062 -121.95735 23981 ft 445 kts 108°
2026-05-05 17:07 48.76940 -121.91352 24494 ft 447 kts 108°
2026-05-05 17:08 48.75811 -121.86949 24988 ft 450 kts 108°
2026-05-05 17:08 48.74673 -121.82522 25467 ft 452 kts 108°
2026-05-05 17:08 48.73527 -121.78070 25936 ft 454 kts 108°
2026-05-05 17:08 48.72375 -121.73603 26411 ft 457 kts 107°
2026-05-05 17:09 48.71211 -121.69098 26878 ft 461 kts 107°
2026-05-05 17:09 48.70040 -121.64575 27358 ft 463 kts 107°
2026-05-05 17:09 48.68858 -121.60019 27830 ft 466 kts 107°
2026-05-05 17:09 48.67669 -121.55444 28299 ft 469 kts 107°
2026-05-05 17:10 48.66469 -121.50838 28751 ft 472 kts 107°
2026-05-05 17:10 48.65260 -121.46201 29197 ft 475 kts 107°
2026-05-05 17:10 48.64041 -121.41543 29612 ft 478 kts 107°
2026-05-05 17:10 48.62812 -121.36854 30024 ft 481 kts 107°
2026-05-05 17:11 48.61576 -121.32146 30418 ft 484 kts 107°
2026-05-05 17:11 48.60329 -121.27409 30804 ft 487 kts 107°
2026-05-05 17:11 48.59074 -121.22649 31285 ft 487 kts 107°
2026-05-05 17:11 48.57822 -121.17919 31856 ft 485 kts 107°
2026-05-05 17:12 48.56572 -121.13195 32453 ft 483 kts 106°
2026-05-05 17:12 48.55329 -121.08502 33073 ft 481 kts 106°
2026-05-05 17:12 48.54085 -121.03820 33664 ft 479 kts 106°
2026-05-05 17:12 48.52843 -120.99157 34198 ft 478 kts 106°
2026-05-05 17:13 48.51601 -120.94503 34652 ft 478 kts 105°
2026-05-05 17:13 48.50359 -120.89852 35029 ft 478 kts 105°
2026-05-05 17:13 48.49115 -120.85201 35454 ft 478 kts 105°
2026-05-05 17:13 48.47871 -120.80575 35992 ft 475 kts 105°
2026-05-05 17:14 48.46628 -120.75965 36525 ft 474 kts 105°
2026-05-05 17:14 48.45388 -120.71350 36961 ft 476 kts 105°
2026-05-05 17:14 48.44143 -120.66729 37428 ft 476 kts 105°
2026-05-05 17:14 48.42897 -120.62129 37961 ft 475 kts 105°
2026-05-05 17:15 48.41644 -120.57508 38225 ft 477 kts 104°
2026-05-05 17:15 48.40391 -120.52896 38754 ft 475 kts 104°
2026-05-05 17:15 48.39138 -120.48300 39088 ft 474 kts 104°
2026-05-05 17:15 48.37889 -120.43712 39483 ft 474 kts 105°
2026-05-05 17:16 48.36642 -120.39140 39874 ft 473 kts 105°
2026-05-05 17:16 48.35389 -120.34566 40282 ft 472 kts 105°
2026-05-05 17:16 48.34138 -120.30008 40671 ft 472 kts 105°
2026-05-05 17:16 48.32886 -120.25451 41042 ft 472 kts 105°
2026-05-05 17:17 48.31634 -120.20899 41444 ft 471 kts 105°
2026-05-05 17:17 48.30383 -120.16365 41831 ft 470 kts 105°
2026-05-05 17:17 48.29148 -120.11897 42168 ft 470 kts 106°
2026-05-05 17:17 48.27894 -120.07370 42516 ft 469 kts 106°
2026-05-05 17:18 48.26641 -120.02848 42831 ft 469 kts 106°
2026-05-05 17:18 48.25795 -119.99803 43061 ft 469 kts 106°
2026-05-05 17:18 48.24131 -119.93834 43481 ft 468 kts 106°
2026-05-05 17:18 48.22876 -119.89338 43775 ft 468 kts 106°
2026-05-05 17:19 48.21616 -119.84827 44087 ft 468 kts 107°
2026-05-05 17:19 48.20355 -119.80329 44398 ft 468 kts 107°
2026-05-05 17:19 48.19093 -119.75835 44695 ft 467 kts 107°
2026-05-05 17:19 48.17835 -119.71366 44916 ft 466 kts 107°
2026-05-05 17:20 48.15705 -119.63793 44913 ft 475 kts 107°
2026-05-05 17:20 48.13095 -119.54576 44931 ft 486 kts 107°
2026-05-05 17:21 48.10422 -119.45163 44935 ft 496 kts 107°
2026-05-05 17:22 48.06368 -119.30974 44925 ft 496 kts 107°
2026-05-05 17:22 48.03652 -119.21493 44927 ft 497 kts 107°
2026-05-05 17:23 48.00918 -119.12008 44930 ft 497 kts 108°
2026-05-05 17:23 47.98181 -119.02535 44924 ft 497 kts 108°
2026-05-05 17:24 47.95434 -118.93071 44935 ft 497 kts 108°
2026-05-05 17:24 47.92675 -118.83601 44920 ft 497 kts 108°
2026-05-05 17:25 47.89908 -118.74141 44922 ft 498 kts 108°
2026-05-05 17:25 47.87131 -118.64684 44930 ft 498 kts 108°
2026-05-05 17:26 47.84344 -118.55227 44934 ft 499 kts 108°
2026-05-05 17:26 47.81544 -118.45765 44931 ft 500 kts 108°
2026-05-05 17:27 47.78738 -118.36319 44935 ft 500 kts 108°
2026-05-05 17:27 47.75922 -118.26873 44937 ft 500 kts 108°
2026-05-05 17:28 47.73109 -118.17478 44933 ft 500 kts 108°
2026-05-05 17:28 47.70276 -118.08048 44943 ft 500 kts 109°
2026-05-05 17:29 47.67430 -117.98613 44958 ft 501 kts 109°
2026-05-05 17:29 47.64577 -117.89189 44965 ft 501 kts 109°
2026-05-05 17:30 47.61715 -117.79772 45024 ft 502 kts 109°
2026-05-05 17:30 47.58850 -117.70384 45019 ft 499 kts 109°
2026-05-05 17:31 47.56527 -117.60804 45005 ft 489 kts 96°
2026-05-05 17:31 47.55940 -117.50892 45043 ft 483 kts 86°
2026-05-05 17:32 47.55494 -117.40957 45038 ft 484 kts 89°
2026-05-05 17:32 47.54984 -117.30982 45027 ft 485 kts 88°
2026-05-05 17:33 47.54522 -117.21002 45029 ft 487 kts 89°
2026-05-05 17:33 47.54001 -117.11009 45027 ft 486 kts 89°
2026-05-05 17:34 47.53510 -117.01011 45027 ft 488 kts 89°
2026-05-05 17:34 47.52980 -116.90995 45036 ft 488 kts 89°
2026-05-05 17:35 47.52462 -116.80982 45041 ft 489 kts 89°
2026-05-05 17:35 47.51921 -116.70956 45030 ft 489 kts 89°
2026-05-05 17:36 47.51379 -116.60925 45016 ft 490 kts 89°
2026-05-05 17:36 47.50822 -116.50882 45013 ft 490 kts 89°
2026-05-05 17:37 47.50259 -116.40834 45002 ft 490 kts 89°
2026-05-05 17:37 47.49685 -116.30767 44990 ft 491 kts 89°
2026-05-05 17:38 47.49103 -116.20713 44984 ft 492 kts 89°
2026-05-05 17:38 47.48512 -116.10645 44979 ft 492 kts 90°
2026-05-05 17:39 47.47910 -116.00562 44976 ft 493 kts 90°
2026-05-05 17:39 47.47304 -115.90544 44968 ft 493 kts 90°
2026-05-05 17:40 47.46683 -115.80484 44951 ft 490 kts 89°
2026-05-05 17:40 47.46061 -115.70439 44962 ft 491 kts 89°
2026-05-05 17:41 47.44867 -115.60452 44960 ft 500 kts 101°
2026-05-05 17:41 47.42711 -115.50652 44978 ft 502 kts 102°
2026-05-05 17:42 47.40667 -115.40816 44978 ft 501 kts 101°
2026-05-05 17:42 47.38544 -115.31000 44994 ft 502 kts 102°
2026-05-05 17:43 47.36448 -115.21181 44991 ft 503 kts 102°
2026-05-05 17:43 47.34324 -115.11347 45004 ft 503 kts 102°
2026-05-05 17:44 47.32194 -115.01527 45019 ft 503 kts 102°
2026-05-05 17:44 47.30059 -114.91711 45019 ft 503 kts 102°
2026-05-05 17:45 47.27908 -114.81894 45031 ft 503 kts 102°
2026-05-05 17:45 47.25756 -114.72094 45028 ft 502 kts 102°
2026-05-05 17:46 47.23595 -114.62311 45039 ft 505 kts 103°
2026-05-05 17:46 47.21414 -114.52477 45055 ft 504 kts 103°
2026-05-05 17:47 47.19227 -114.42674 45050 ft 505 kts 103°
2026-05-05 17:47 47.17035 -114.32880 45063 ft 505 kts 103°
2026-05-05 17:48 47.14831 -114.23091 45075 ft 504 kts 103°
2026-05-05 17:48 47.12636 -114.13378 45072 ft 504 kts 103°
2026-05-05 17:49 47.10421 -114.03628 45078 ft 504 kts 103°
2026-05-05 17:49 47.08198 -113.93876 45080 ft 504 kts 103°
2026-05-05 17:50 47.05964 -113.84131 45065 ft 503 kts 104°
2026-05-05 17:50 47.03723 -113.74392 45077 ft 505 kts 104°
2026-05-05 17:51 47.01468 -113.64643 45075 ft 505 kts 104°
2026-05-05 17:51 46.99205 -113.54899 45074 ft 505 kts 104°
2026-05-05 17:52 46.96931 -113.45155 45078 ft 506 kts 104°
2026-05-05 17:52 46.94646 -113.35403 45078 ft 507 kts 104°
2026-05-05 17:53 46.92351 -113.25656 45089 ft 507 kts 104°
2026-05-05 17:53 46.90046 -113.15908 45087 ft 507 kts 104°
2026-05-05 17:54 46.87733 -113.06169 45090 ft 507 kts 105°
2026-05-05 17:54 46.85412 -112.96442 45094 ft 507 kts 105°
2026-05-05 17:55 46.83083 -112.86721 45101 ft 507 kts 105°
2026-05-05 17:55 46.80743 -112.77003 45102 ft 507 kts 105°
2026-05-05 17:56 46.78412 -112.67356 45111 ft 508 kts 105°
2026-05-05 17:56 46.76056 -112.57654 45121 ft 507 kts 105°
2026-05-05 17:57 46.73692 -112.47959 45123 ft 508 kts 106°
2026-05-05 17:57 46.71315 -112.38255 45131 ft 508 kts 106°
2026-05-05 17:58 46.68929 -112.28554 45138 ft 509 kts 106°
2026-05-05 17:58 46.66533 -112.18853 45138 ft 510 kts 106°
2026-05-05 17:59 46.64122 -112.09138 45130 ft 511 kts 107°
2026-05-05 17:59 46.61704 -111.99435 45135 ft 510 kts 107°
2026-05-05 18:00 46.59421 -111.89659 45134 ft 512 kts 104°
2026-05-05 18:00 46.57222 -111.79813 45146 ft 512 kts 105°
2026-05-05 18:01 46.55016 -111.69972 45146 ft 513 kts 105°
2026-05-05 18:01 46.52798 -111.60115 45148 ft 513 kts 105°
2026-05-05 18:02 46.50569 -111.50267 45154 ft 514 kts 105°
2026-05-05 18:02 46.48329 -111.40407 45140 ft 515 kts 105°
2026-05-05 18:03 46.46078 -111.30551 45143 ft 516 kts 105°
2026-05-05 18:03 46.43814 -111.20676 45147 ft 516 kts 105°
2026-05-05 18:04 46.41539 -111.10805 45135 ft 517 kts 105°
2026-05-05 18:04 46.39252 -111.00918 45144 ft 518 kts 106°
2026-05-05 18:05 46.36953 -110.91035 45138 ft 518 kts 106°
2026-05-05 18:05 46.34648 -110.81163 45138 ft 518 kts 106°
2026-05-05 18:06 46.32334 -110.71302 45135 ft 517 kts 106°
2026-05-05 18:06 46.30405 -110.63116 45135 ft 518 kts 106°
2026-05-05 18:07 46.28074 -110.53261 45129 ft 518 kts 107°
2026-05-05 18:07 46.25733 -110.43412 45131 ft 518 kts 107°
2026-05-05 18:08 46.23383 -110.33565 45125 ft 519 kts 107°
2026-05-05 18:08 46.21022 -110.23718 45120 ft 519 kts 107°
2026-05-05 18:09 46.18655 -110.13886 45124 ft 518 kts 107°
2026-05-05 18:09 46.16279 -110.04065 45123 ft 519 kts 107°
2026-05-05 18:10 46.13894 -109.94250 45115 ft 518 kts 107°
2026-05-05 18:10 46.11501 -109.84441 45109 ft 519 kts 107°
2026-05-05 18:11 46.09098 -109.74635 45107 ft 519 kts 107°
2026-05-05 18:11 46.06700 -109.64894 45105 ft 519 kts 108°
2026-05-05 18:12 46.04277 -109.55093 45099 ft 520 kts 108°
2026-05-05 18:12 46.01843 -109.45288 45100 ft 521 kts 108°
2026-05-05 18:13 45.99396 -109.35477 45097 ft 521 kts 108°
2026-05-05 18:13 45.96939 -109.25665 45108 ft 522 kts 108°
2026-05-05 18:14 45.94473 -109.15861 45108 ft 522 kts 108°
2026-05-05 18:14 45.91997 -109.06057 45105 ft 522 kts 108°
2026-05-05 18:15 45.89510 -108.96257 45115 ft 523 kts 108°
2026-05-05 18:15 45.87014 -108.86459 45123 ft 523 kts 108°
2026-05-05 18:16 45.84507 -108.76659 45128 ft 524 kts 108°
2026-05-05 18:16 45.81988 -108.66854 45122 ft 525 kts 109°
2026-05-05 18:17 45.79300 -108.57114 45120 ft 526 kts 111°
2026-05-05 18:17 45.76436 -108.47410 45119 ft 530 kts 111°
2026-05-05 18:18 45.73586 -108.37693 45126 ft 530 kts 111°
2026-05-05 18:18 45.70724 -108.28045 45123 ft 531 kts 111°
2026-05-05 18:19 45.67845 -108.18326 45124 ft 530 kts 111°
2026-05-05 18:19 45.64950 -108.08626 45125 ft 531 kts 111°
2026-05-05 18:20 45.62050 -107.98923 45112 ft 531 kts 111°
2026-05-05 18:20 45.59136 -107.89226 45120 ft 531 kts 111°
2026-05-05 18:21 45.56216 -107.79539 45120 ft 532 kts 112°
2026-05-05 18:21 45.53283 -107.69851 45122 ft 531 kts 112°
2026-05-05 18:22 45.50347 -107.60187 45117 ft 531 kts 112°
2026-05-05 18:22 45.47403 -107.50532 45124 ft 531 kts 112°
2026-05-05 18:23 45.44451 -107.40891 45120 ft 531 kts 112°
2026-05-05 18:23 45.41492 -107.31260 45119 ft 531 kts 112°
2026-05-05 18:24 45.38522 -107.21635 45115 ft 531 kts 112°
2026-05-05 18:24 45.35547 -107.12025 45112 ft 531 kts 112°
2026-05-05 18:25 45.32566 -107.02436 45106 ft 531 kts 113°
2026-05-05 18:25 45.29573 -106.92839 45106 ft 531 kts 113°
2026-05-05 18:26 45.26573 -106.83261 45106 ft 531 kts 113°
2026-05-05 18:26 45.23563 -106.73683 45099 ft 531 kts 113°
2026-05-05 18:27 45.20543 -106.64110 45098 ft 532 kts 113°
2026-05-05 18:27 45.17515 -106.54547 45096 ft 532 kts 114°
2026-05-05 18:28 45.12977 -106.40282 45093 ft 532 kts 114°
2026-05-05 18:28 45.09928 -106.30740 45088 ft 532 kts 114°
2026-05-05 18:29 45.06870 -106.21207 45093 ft 532 kts 114°
2026-05-05 18:29 45.03806 -106.11686 45093 ft 532 kts 114°
2026-05-05 18:30 45.00732 -106.02173 45096 ft 532 kts 114°
2026-05-05 18:30 44.97648 -105.92665 45098 ft 532 kts 114°
2026-05-05 18:31 44.94556 -105.83163 45095 ft 533 kts 114°
2026-05-05 18:31 44.91454 -105.73666 45089 ft 533 kts 115°
2026-05-05 18:32 44.88344 -105.64176 45089 ft 533 kts 115°
2026-05-05 18:32 44.85223 -105.54693 45088 ft 534 kts 115°
2026-05-05 18:33 44.82092 -105.45208 45091 ft 534 kts 115°
2026-05-05 18:33 44.78950 -105.35728 45087 ft 534 kts 115°
2026-05-05 18:34 44.75822 -105.26320 45087 ft 534 kts 115°
2026-05-05 18:34 44.72670 -105.16876 45088 ft 534 kts 115°
2026-05-05 18:35 44.69487 -105.07374 45088 ft 533 kts 115°
2026-05-05 18:35 44.66344 -104.98022 45083 ft 532 kts 115°
2026-05-05 18:36 44.63177 -104.88632 45077 ft 532 kts 116°
2026-05-05 18:36 44.60006 -104.79266 45074 ft 531 kts 116°
2026-05-05 18:37 44.56835 -104.69929 45063 ft 530 kts 116°
2026-05-05 18:37 44.53657 -104.60605 45057 ft 529 kts 116°
2026-05-05 18:38 44.50472 -104.51295 45050 ft 531 kts 117°
2026-05-05 18:38 44.47271 -104.41969 45051 ft 531 kts 117°
2026-05-05 18:39 44.44062 -104.32651 45050 ft 532 kts 117°
2026-05-05 18:39 44.40841 -104.23332 45051 ft 533 kts 117°
2026-05-05 18:40 44.37606 -104.14005 45053 ft 534 kts 117°
2026-05-05 18:40 44.34355 -104.04663 45053 ft 535 kts 118°
2026-05-05 18:41 44.31087 -103.95307 45050 ft 537 kts 118°
2026-05-05 18:41 44.27804 -103.85938 45052 ft 538 kts 118°
2026-05-05 18:42 44.24505 -103.76557 45045 ft 539 kts 118°
2026-05-05 18:42 44.21220 -103.67245 45035 ft 538 kts 118°
2026-05-05 18:43 44.17911 -103.57900 45018 ft 538 kts 118°
2026-05-05 18:43 44.14591 -103.48555 45010 ft 538 kts 118°
2026-05-05 18:44 44.11268 -103.39233 45005 ft 538 kts 118°
2026-05-05 18:44 44.07932 -103.29908 45011 ft 538 kts 118°
2026-05-05 18:45 44.04591 -103.20596 45038 ft 539 kts 118°
2026-05-05 18:45 44.01233 -103.11275 45038 ft 540 kts 118°
2026-05-05 18:46 43.97863 -103.01944 45043 ft 541 kts 118°
2026-05-05 18:46 43.94766 -102.92409 45044 ft 543 kts 115°
2026-05-05 18:47 43.91682 -102.82835 45059 ft 543 kts 116°
2026-05-05 18:47 43.88577 -102.73272 45064 ft 544 kts 116°
2026-05-05 18:48 43.85476 -102.63706 45070 ft 545 kts 116°
2026-05-05 18:48 43.82431 -102.54391 45064 ft 544 kts 116°
2026-05-05 18:49 43.79256 -102.44674 45060 ft 544 kts 116°
2026-05-05 18:49 43.76125 -102.35154 45062 ft 543 kts 116°
2026-05-05 18:50 43.72993 -102.25646 45065 ft 543 kts 116°
2026-05-05 18:50 43.69849 -102.16150 45057 ft 543 kts 116°
2026-05-05 18:51 43.66690 -102.06633 45064 ft 546 kts 116°
2026-05-05 18:51 43.63524 -101.97132 45067 ft 545 kts 116°
2026-05-05 18:52 43.60348 -101.87636 45058 ft 544 kts 117°
2026-05-05 18:52 43.57170 -101.78163 45060 ft 544 kts 117°
2026-05-05 18:53 43.53983 -101.68698 45051 ft 545 kts 117°
2026-05-05 18:53 43.50809 -101.59307 45060 ft 544 kts 117°
2026-05-05 18:54 43.47607 -101.49864 45061 ft 544 kts 117°
2026-05-05 18:54 43.44425 -101.40515 45057 ft 544 kts 117°
2026-05-05 18:55 43.41208 -101.31093 45061 ft 544 kts 117°
2026-05-05 18:55 43.37984 -101.21685 45053 ft 544 kts 117°
2026-05-05 18:56 43.34747 -101.12269 45040 ft 544 kts 117°
2026-05-05 18:56 43.32054 -101.04461 45037 ft 545 kts 118°
2026-05-05 18:57 43.28800 -100.95058 45026 ft 545 kts 118°
2026-05-05 18:57 43.25541 -100.85671 45027 ft 545 kts 118°
2026-05-05 18:58 43.22270 -100.76284 45028 ft 546 kts 118°
2026-05-05 18:58 43.18996 -100.66917 45038 ft 546 kts 118°
2026-05-05 18:59 43.15705 -100.57535 45046 ft 546 kts 118°
2026-05-05 18:59 43.12411 -100.48176 45062 ft 546 kts 118°
2026-05-05 19:00 43.09103 -100.38810 45058 ft 547 kts 118°
2026-05-05 19:00 43.05810 -100.29515 45059 ft 547 kts 119°
2026-05-05 19:01 43.02464 -100.20108 45051 ft 547 kts 119°
2026-05-05 19:01 42.99151 -100.10820 45056 ft 547 kts 119°
2026-05-05 19:02 42.95807 -100.01479 45054 ft 548 kts 119°
2026-05-05 19:02 42.92456 -99.92148 45053 ft 547 kts 119°
2026-05-05 19:03 42.89093 -99.82819 45053 ft 548 kts 119°
2026-05-05 19:03 42.85723 -99.73495 45049 ft 548 kts 120°
2026-05-05 19:04 42.82343 -99.64179 45043 ft 549 kts 120°
2026-05-05 19:04 42.78954 -99.54867 45044 ft 548 kts 120°
2026-05-05 19:05 42.75556 -99.45564 45052 ft 549 kts 120°
2026-05-05 19:05 42.72148 -99.36262 45047 ft 550 kts 120°
2026-05-05 19:06 42.68734 -99.26975 45044 ft 549 kts 120°
2026-05-05 19:06 42.65305 -99.17679 45045 ft 550 kts 120°
2026-05-05 19:07 42.61869 -99.08392 45044 ft 551 kts 120°
2026-05-05 19:07 42.58419 -98.99101 45037 ft 551 kts 120°
2026-05-05 19:08 42.54963 -98.89822 45043 ft 551 kts 121°
2026-05-05 19:08 42.51498 -98.80551 45039 ft 551 kts 121°
2026-05-05 19:09 42.48023 -98.71282 45037 ft 552 kts 121°
2026-05-05 19:09 42.44334 -98.62206 45039 ft 550 kts 124°
2026-05-05 19:10 42.40521 -98.53223 45039 ft 550 kts 124°
2026-05-05 19:10 42.36736 -98.44230 45040 ft 550 kts 124°
2026-05-05 19:11 42.32903 -98.35237 45039 ft 554 kts 124°
2026-05-05 19:11 42.29077 -98.26218 45041 ft 553 kts 124°
2026-05-05 19:12 42.25234 -98.17239 45039 ft 552 kts 124°
2026-05-05 19:12 42.21392 -98.08254 45039 ft 553 kts 124°
2026-05-05 19:13 42.17538 -97.99292 45035 ft 552 kts 125°
2026-05-05 19:13 42.13679 -97.90331 45034 ft 553 kts 125°
2026-05-05 19:14 42.09839 -97.81448 45029 ft 552 kts 125°
2026-05-05 19:14 42.05966 -97.72514 45011 ft 552 kts 125°
2026-05-05 19:15 42.02085 -97.63588 45009 ft 552 kts 125°
2026-05-05 19:15 41.98202 -97.54685 44998 ft 552 kts 126°
2026-05-05 19:16 41.94309 -97.45782 44998 ft 552 kts 126°
2026-05-05 19:16 41.90409 -97.36895 44999 ft 552 kts 126°
2026-05-05 19:17 41.86501 -97.28012 45006 ft 552 kts 126°
2026-05-05 19:17 41.82588 -97.19147 45009 ft 552 kts 126°
2026-05-05 19:18 41.78668 -97.10291 45010 ft 553 kts 126°
2026-05-05 19:18 41.74736 -97.01434 45014 ft 553 kts 126°
2026-05-05 19:19 41.70800 -96.92594 45004 ft 553 kts 126°
2026-05-05 19:19 41.66850 -96.83751 45005 ft 553 kts 126°
2026-05-05 19:20 41.62919 -96.74974 45001 ft 554 kts 126°
2026-05-05 19:20 41.58956 -96.66152 45009 ft 554 kts 126°
2026-05-05 19:21 41.54982 -96.57329 45014 ft 554 kts 126°
2026-05-05 19:21 41.51001 -96.48519 45009 ft 554 kts 126°
2026-05-05 19:22 41.47009 -96.39712 45007 ft 555 kts 126°
2026-05-05 19:22 41.43007 -96.30903 44991 ft 555 kts 127°
2026-05-05 19:23 41.39000 -96.22115 44992 ft 556 kts 127°
2026-05-05 19:23 41.34983 -96.13325 44990 ft 556 kts 127°
2026-05-05 19:24 41.30956 -96.04542 44991 ft 556 kts 127°
2026-05-05 19:24 41.26924 -95.95773 44994 ft 556 kts 127°
2026-05-05 19:25 41.22882 -95.87006 44987 ft 557 kts 127°
2026-05-05 19:25 41.18830 -95.78245 44976 ft 557 kts 127°
2026-05-05 19:26 41.14299 -95.70045 44969 ft 546 kts 139°
2026-05-05 19:26 41.09024 -95.62806 44993 ft 546 kts 140°
2026-05-05 19:27 41.03895 -95.55323 44994 ft 548 kts 139°
2026-05-05 19:27 40.98708 -95.48048 44981 ft 547 kts 140°
2026-05-05 19:28 40.93522 -95.40657 44973 ft 549 kts 139°
2026-05-05 19:28 40.88306 -95.33291 44976 ft 549 kts 140°
2026-05-05 19:29 40.83073 -95.25917 44967 ft 550 kts 139°
2026-05-05 19:29 40.77842 -95.18544 44987 ft 550 kts 140°
2026-05-05 19:30 40.72586 -95.11183 44991 ft 552 kts 140°
2026-05-05 19:30 40.67335 -95.03817 44991 ft 552 kts 140°
2026-05-05 19:31 40.62061 -94.96464 44989 ft 552 kts 140°
2026-05-05 19:31 40.56789 -94.89109 44981 ft 553 kts 140°
2026-05-05 19:32 40.51496 -94.81762 44966 ft 555 kts 140°
2026-05-05 19:32 40.46181 -94.74386 44967 ft 555 kts 140°
2026-05-05 19:33 40.40865 -94.67040 44964 ft 555 kts 141°
2026-05-05 19:33 40.35576 -94.59741 44965 ft 556 kts 141°
2026-05-05 19:34 40.30239 -94.52399 44960 ft 557 kts 141°
2026-05-05 19:35 40.22218 -94.41393 44965 ft 557 kts 141°
2026-05-05 19:35 40.16862 -94.34069 44967 ft 558 kts 141°
2026-05-05 19:36 40.11495 -94.26745 44976 ft 557 kts 141°
2026-05-05 19:36 40.06114 -94.19423 44972 ft 559 kts 141°
2026-05-05 19:37 40.00737 -94.12120 44983 ft 558 kts 141°
2026-05-05 19:37 39.95341 -94.04813 44985 ft 559 kts 141°
2026-05-05 19:38 39.89938 -93.97513 44985 ft 560 kts 141°
2026-05-05 19:38 39.84525 -93.90217 44986 ft 560 kts 141°
2026-05-05 19:39 39.79102 -93.82922 44970 ft 560 kts 141°
2026-05-05 19:39 39.73672 -93.75641 44974 ft 561 kts 141°
2026-05-05 19:40 39.68251 -93.68385 44966 ft 560 kts 141°
2026-05-05 19:40 39.62821 -93.61137 44969 ft 559 kts 141°
2026-05-05 19:41 39.57400 -93.53916 44974 ft 558 kts 141°
2026-05-05 19:41 39.52023 -93.46773 44970 ft 557 kts 141°
2026-05-05 19:42 39.46612 -93.39600 44982 ft 556 kts 141°
2026-05-05 19:42 39.41199 -93.32443 44977 ft 556 kts 141°
2026-05-05 19:43 39.35792 -93.25310 44982 ft 555 kts 141°
2026-05-05 19:43 39.30390 -93.18200 44981 ft 554 kts 141°
2026-05-05 19:44 39.24987 -93.11107 44982 ft 554 kts 141°
2026-05-05 19:44 39.19587 -93.04032 44978 ft 553 kts 142°
2026-05-05 19:45 39.14190 -92.96980 44981 ft 554 kts 142°
2026-05-05 19:45 39.08776 -92.89919 44967 ft 553 kts 142°
2026-05-05 19:46 39.03362 -92.82878 44956 ft 554 kts 142°
2026-05-05 19:46 38.98857 -92.77030 44955 ft 554 kts 142°
2026-05-05 19:47 38.92549 -92.68859 44953 ft 555 kts 142°